SCP
0 0 1 0 0 0 0 1 1 1 1 1 2 2 3 3 4 4 3 3 3 3 4 5 5 5 4 4 3 3 3 3 3 3 4 4 4 4 3 3 2 2 2 2
1 1 1 1 0 0 0 1 1 1 1 2 2 3 3 3 4 5 5 4 4 4 4 5 5 5 4 4 4 4 3 3 4 4 5 5 5 4 4 3 3 2 2 2
1 1 1 1 1 0 1 1 1 2 2 3 3 3 3 3 4 5 5 6 5 5 5 5 4 4 5 5 5 5 5 5 5 6 6 6 6 5 4 4 3 3 3 3
1 1 1 1 1 1 1 1 1 2 2 2 2 2 3 3 3 4 4 5 5 6 6 5 5 5 5 5 5 5 6 6 6 7 7 6 6 5 5 4 4 5 5 5
1 1 1 1 1 1 1 1 1 2 2 2 2 2 2 3 4 4 4 3 4 5 5 6 6 6 6 7 7 7 8 8 8 8 8 7 6 5 5 5 5 6 7 7
0 0 0 1 1 1 1 1 2 2 2 1 2 2 3 4 5 5 4 4 4 4 5 6 7 7 8 9 9 9 9 10 10 10 9 8 7 6 5 5 6 7 8 8
0 0 0 1 1 1 1 2 2 2 2 2 2 3 4 5 6 5 5 6 6 5 6 7 8 8 8 9 9 10 10 11 12 11 10 9 8 7 6 6 6 7 8 9
1 1 1 1 2 2 3 3 3 3 4 4 4 5 6 7 6 5 6 6 6 6 7 8 8 8 8 9 11 12 12 13 12 10 9 8 7 7 7 6 6 7 8 8
1 1 1 2 3 4 5 5 6 6 6 6 6 6 7 8 7 6 6 6 7 7 8 9 9 9 10 12 14 15 15 15 13 10 7 6 6 6 7 7 8 8 9 9
2 2 2 2 3 5 6 7 8 8 9 8 7 7 8 8 8 8 7 7 7 7 8 9 10 11 11 13 14 14 14 13 11 9 7 6 6 6 7 8 10 11 12 12
4 4 4 4 4 5 6 7 7 8 8 8 8 9 8 8 7 7 7 7 7 7 8 9 11 12 12 12 12 11 10 9 8 8 7 7 6 6 7 8 10 12 14 15
5 6 7 6 6 5 5 6 7 7 7 7 8 9 8 7 6 6 6 6 7 7 9 10 11 14 14 14 12 10 8 7 6 6 8 8 6 6 7 8 7 8 10 12
4 5 6 6 5 5 6 6 6 6 7 7 8 8 7 7 7 7 7 7 7 8 9 10 11 13 14 13 11 9 7 6 5 5 7 8 8 7 9 9 6 5 5 6
3 4 4 4 4 5 6 6 6 7 7 6 7 6 6 6 7 8 8 8 8 8 8 9 9 10 9 9 8 7 6 5 4 4 5 7 8 9 10 9 6 3 2 2
3 3 3 3 3 5 6 6 6 6 5 5 5 5 4 4 5 8 10 9 8 8 7 8 8 8 7 7 7 7 5 4 4 4 4 5 6 7 8 7 4 3 2 2
2 2 2 2 3 4 5 5 5 5 4 3 4 5 4 4 5 8 11 11 10 9 8 8 8 8 8 7 8 7 6 4 4 4 4 4 4 5 5 4 3 2 2 2
2 2 2 2 2 3 4 4 5 4 4 4 4 4 4 5 7 9 11 12 11 11 10 9 8 8 8 8 7 7 5 4 4 4 4 4 3 3 3 3 2 2 2 2
4 3 2 2 2 2 3 3 4 4 4 4 4 4 5 6 8 10 11 11 11 11 10 8 8 8 8 7 6 6 5 4 4 4 4 3 3 3 3 3 3 3 3 2
5 5 4 4 3 3 3 4 4 4 4 4 5 5 6 7 8 9 10 9 9 9 8 8 7 7 7 6 5 5 5 5 4 4 3 2 3 4 4 3 3 2 2 1
6 7 7 7 7 6 6 5 5 5 5 5 6 6 7 8 8 9 9 8 7 7 7 6 6 6 6 5 4 5 5 5 4 3 2 2 2 3 3 3 2 2 1 1
4 6 7 8 8 8 8 8 8 8 8 8 8 9 10 10 9 9 9 9 7 5 5 4 4 5 5 4 4 4 4 5 5 4 2 2 2 2 2 2 2 1 1 1
3 3 5 6 7 8 8 9 10 10 11 11 11 12 12 11 10 9 9 9 7 5 4 4 4 3 4 4 4 5 4 5 5 5 4 3 2 2 2 2 1 1 1 1
2 2 3 4 5 6 7 8 9 10 11 11 11 11 11 10 8 8 7 7 5 4 3 3 2 2 2 4 5 6 5 5 5 5 5 4 3 3 3 3 2 2 1 1
3 2 3 3 3 4 5 6 7 7 7 8 8 8 7 6 6 5 5 4 3 2 2 2 1 1 2 4 5 5 4 4 4 4 5 4 4 4 4 4 3 2 1 1
3 3 3 3 3 3 3 3 4 4 4 4 4 4 4 4 4 5 5 3 2 1 1 1 0 0 2 3 4 3 3 3 3 3 3 3 3 2 3 3 2 1 1 1
3 3 3 2 2 2 2 2 2 2 2 2 2 2 3 3 4 5 4 3 2 1 1 0 0 0 1 1 2 2 2 1 1 2 2 2 1 1 1 1 1 1 1 1
3 3 2 1 1 1 1 1 1 1 2 2 2 2 2 4 4 4 4 3 2 1 1 0 0 0 0 1 1 1 1 1 1 1 1 1 1 1 1 1 1 1 1 1
Wind_Speed
11 8 9 11 13 14 15 15 14 12 11 7 5 4 4 4 5 6 8 9 10 10 10 10 10 10 10 9 9 9 9 9 8 7 7 6 6 6 5 4 4 3 3 2
12 11 11 13 14 15 15 15 15 14 11 6 3 4 5 5 6 6 7 8 9 9 9 10 10 10 10 9 9 9 9 9 8 7 7 7 6 6 5 5 4 3 3 2
12 11 12 16 14 14 13 12 13 13 10 6 6 6 6 6 7 6 7 7 8 8 9 9 9 10 10 9 9 9 9 9 8 8 8 7 7 6 6 5 5 4 3 3
10 11 16 9 8 11 12 12 11 10 7 6 6 6 5 5 5 5 5 6 7 7 7 8 8 9 9 9 10 10 9 9 8 8 8 8 7 6 6 5 4 4 4 3
10 13 13 9 8 9 11 11 9 9 8 6 5 5 6 5 5 5 5 5 6 6 7 7 8 9 9 10 10 9 9 9 8 8 8 8 8 7 6 5 5 4 4 4
11 13 13 8 6 5 8 11 7 7 7 6 7 8 5 4 3 3 4 4 5 6 7 7 8 9 10 10 9 9 9 8 8 8 8 8 7 7 6 6 5 5 4 4
14 13 10 3 5 7 11 4 2 3 4 5 6 5 1 2 2 3 4 4 5 6 6 7 9 10 10 9 8 7 7 7 7 7 7 7 7 6 6 6 5 5 5 4
11 13 9 4 6 6 1 2 0 1 2 4 4 2 2 3 2 3 4 5 6 6 6 6 8 9 9 9 8 8 7 7 7 7 6 6 7 6 6 6 6 6 5 4
6 4 3 1 0 1 1 1 2 2 3 3 3 3 2 3 3 3 4 5 6 7 7 7 7 8 9 8 8 9 9 8 7 6 6 6 6 7 6 6 5 5 4 4
5 4 2 2 1 1 2 2 3 3 3 3 3 2 2 2 3 4 5 5 5 7 7 6 6 6 7 8 8 8 8 8 7 7 7 6 5 5 5 5 4 4 4 4
7 5 4 3 3 2 3 3 3 3 3 3 3 3 3 3 3 4 4 5 5 6 6 7 6 6 7 7 7 8 7 7 7 6 7 6 5 3 3 3 1 2 3 3
5 3 4 2 2 4 4 4 3 2 3 2 2 2 3 3 3 4 5 5 6 6 6 6 6 6 6 7 7 8 7 7 5 5 5 6 6 5 6 4 5 4 3 2
6 6 5 4 4 5 5 4 3 3 2 2 1 2 2 3 3 4 5 5 6 6 6 6 6 6 6 6 7 7 6 6 5 5 5 5 5 6 5 4 4 4 3 3
5 6 7 6 4 4 4 4 3 2 1 1 1 2 2 3 3 4 5 5 5 6 6 6 6 5 5 6 7 7 6 6 5 5 5 5 5 5 5 5 5 4 4 5
6 6 5 4 4 4 4 3 2 2 1 1 2 2 3 3 3 3 4 4 5 6 6 6 5 5 5 6 7 7 6 5 5 4 4 4 4 5 4 5 4 5 5 5
4 5 5 5 4 4 3 3 2 2 2 2 2 2 2 2 3 3 4 5 5 5 5 5 5 5 5 6 7 6 5 6 5 5 5 5 5 5 4 4 4 4 4 5
5 5 5 5 4 3 2 2 1 2 2 3 2 2 2 3 3 3 4 4 4 4 4 4 4 5 6 7 7 5 5 6 7 5 5 5 5 5 5 5 5 5 4 4
5 5 4 4 4 3 2 1 1 1 2 2 3 3 3 3 3 3 3 3 3 3 4 4 4 4 5 6 5 5 5 6 6 5 5 5 4 4 5 5 5 5 5 6
3 3 4 4 4 3 3 3 2 2 2 3 4 4 3 3 3 3 3 4 4 4 4 4 4 5 5 6 5 5 5 6 6 5 5 5 5 5 5 5 5 5 5 6
1 2 2 2 3 3 3 3 3 2 3 3 3 4 4 3 3 3 4 4 3 2 3 4 4 4 5 6 6 5 5 6 6 5 5 5 5 5 5 5 5 5 5 5
1 2 2 2 2 3 3 3 3 3 3 4 4 4 4 3 3 4 4 3 3 3 3 5 4 4 4 4 6 5 5 6 5 5 5 5 5 5 5 5 5 5 5 4
2 3 3 3 3 4 3 3 3 3 4 3 4 4 4 3 3 3 3 2 2 3 3 4 4 3 4 5 5 5 5 6 5 5 5 5 5 5 6 6 5 5 5 5
2 3 3 3 3 3 3 3 3 3 4 4 4 4 4 3 3 3 3 2 2 3 3 3 3 5 5 4 4 5 5 5 5 5 5 5 5 5 5 6 5 5 5 5
2 3 3 2 2 2 3 2 2 2 3 3 3 4 4 4 3 3 1 3 3 4 2 3 6 6 6 4 4 4 5 5 5 5 5 5 5 5 5 5 5 5 5 6
2 2 2 2 2 2 2 2 2 3 3 2 2 3 3 2 2 2 2 3 3 3 2 4 7 7 6 4 4 4 4 4 4 5 5 5 5 5 5 5 5 5 5 5
2 2 1 2 2 2 2 1 1 1 1 2 1 1 2 1 2 2 2 3 4 3 3 4 5 6 4 4 4 4 4 4 5 5 5 5 6 6 5 5 6 5 5 5
2 2 1 1 1 2 2 1 1 1 1 1 1 1 1 1 2 2 3 3 2 2 2 3 4 4 4 3 3 3 3 3 4 4 5 5 5 5 5 6 5 5 5 6
Wind_Direction
242 240 235 228 227 227 233 243 250 246 244 238 228 223 206 194 192 183 178 178 175 174 174 176 176 177 178 175 172 171 172 170 170 168 165 164 161 159 157 157 154 147 143 139
232 228 232 238 235 234 236 241 247 251 248 246 238 224 207 202 199 193 185 180 177 176 175 178 178 178 176 174 172 172 173 170 166 166 167 167 166 161 157 154 150 147 146 145
232 224 233 234 230 232 233 235 241 245 245 227 225 220 213 205 203 200 190 183 180 179 179 180 177 175 174 170 170 173 172 169 167 170 172 170 169 165 162 158 154 154 149 145
233 222 233 232 222 229 235 239 242 245 239 230 231 225 217 214 210 205 195 188 184 181 178 178 175 171 169 166 169 171 171 172 171 171 173 170 169 169 168 164 162 159 154 146
229 229 233 223 213 220 231 236 233 239 236 229 221 219 212 204 208 208 200 192 185 182 178 174 171 167 166 168 167 169 171 172 173 175 175 173 172 172 169 165 160 158 148 146
226 234 235 217 186 207 235 235 215 232 226 211 210 230 199 164 199 202 192 182 179 176 171 170 167 164 167 169 166 169 170 170 170 173 175 173 171 169 164 163 160 154 143 148
229 234 238 178 161 194 224 221 164 221 220 211 224 267 48 180 193 188 178 170 169 167 170 166 163 164 167 165 167 165 160 161 163 167 170 167 162 161 160 159 153 151 149 146
224 232 225 129 188 217 331 32 359 253 252 245 252 247 188 181 174 175 173 169 165 160 158 159 162 163 163 163 156 152 153 153 155 160 160 155 157 159 159 159 160 161 161 161
238 241 61 114 119 46 329 272 303 288 279 260 242 229 195 172 169 169 169 169 163 156 150 152 161 164 163 157 154 154 153 150 151 152 149 155 163 164 167 174 175 172 173 170
245 230 213 202 211 255 281 283 289 278 268 248 237 210 180 168 161 162 163 164 161 155 150 148 153 158 155 154 156 155 153 150 154 156 156 155 168 174 173 175 177 179 176 171
237 237 228 232 249 268 289 294 287 288 283 256 215 198 181 165 155 158 155 157 159 156 149 144 143 142 147 151 155 155 154 156 160 162 154 154 153 135 164 136 145 189 173 169
249 239 246 226 272 286 282 284 291 304 296 271 210 191 172 161 157 158 157 155 157 155 150 147 147 147 150 155 159 159 159 162 166 162 158 157 150 132 64 78 92 82 66 83
275 282 281 271 274 277 276 283 292 294 289 275 225 187 174 163 155 152 156 159 159 155 150 149 149 149 156 160 162 167 165 162 165 165 164 165 163 160 145 112 95 103 113 110
260 259 255 255 260 266 270 271 272 273 270 232 194 183 171 164 159 159 164 163 155 152 154 155 154 155 162 166 167 171 171 161 173 173 170 167 169 171 166 162 157 149 138 142
245 243 247 253 256 256 252 241 225 219 201 178 178 182 177 174 169 165 160 157 154 159 163 161 159 157 164 173 171 173 172 167 173 168 165 162 167 173 170 167 163 157 151 145
239 235 229 229 237 237 223 221 214 200 180 185 191 184 187 176 169 165 162 160 166 171 170 169 170 166 171 175 173 174 169 158 174 176 170 169 174 179 177 175 177 178 173 163
229 222 222 226 227 232 234 244 241 196 185 201 197 180 175 161 160 162 162 164 174 174 171 170 172 173 178 180 181 178 171 164 172 183 181 178 178 184 186 189 187 185 181 160
245 244 240 243 237 223 222 238 238 202 210 208 190 188 191 185 183 176 169 166 169 175 175 173 172 175 181 183 185 183 178 176 185 187 183 185 188 188 188 189 188 184 172 162
238 239 236 240 244 233 230 231 232 211 206 209 207 207 209 206 195 183 176 181 185 188 187 175 166 183 184 177 182 186 186 184 187 189 187 176 191 194 191 189 188 185 182 176
245 240 231 235 243 239 233 235 232 219 218 217 215 212 208 199 190 189 189 201 206 190 168 165 177 188 187 178 189 191 192 194 193 192 192 192 195 196 198 194 192 193 190 186
286 280 262 253 255 255 246 239 231 221 215 221 221 218 211 205 200 198 199 204 183 173 173 172 188 187 187 174 192 195 195 198 194 190 196 198 198 199 201 198 195 194 189 189
315 304 283 259 247 257 258 241 226 219 214 215 219 217 208 205 202 209 215 221 180 158 185 198 198 169 160 175 196 195 196 198 197 198 199 200 198 197 198 199 197 193 191 191
314 305 289 266 255 255 251 236 227 224 222 216 210 211 215 222 221 217 208 188 172 160 195 202 149 137 158 195 201 202 202 203 202 205 204 201 200 198 195 196 195 191 190 193
300 297 292 278 254 244 239 232 224 223 219 219 214 211 213 213 213 221 200 146 151 167 193 134 141 164 193 209 207 208 207 204 205 207 205 203 202 198 194 195 195 189 190 196
296 291 288 266 249 245 235 214 205 206 205 200 201 195 205 211 197 174 164 162 155 179 173 150 166 184 204 211 210 215 217 207 202 199 201 201 200 198 194 195 196 193 195 198
294 280 275 268 266 263 252 225 206 203 202 193 181 183 189 182 176 168 166 171 177 184 182 169 178 193 209 208 209 214 210 187 191 205 203 197 199 199 197 196 197 200 199 199
266 253 234 230 232 242 238 223 212 208 198 187 175 185 186 183 181 174 178 184 188 192 188 191 192 197 203 204 203 208 212 200 198 204 202 202 202 203 198 200 200 197 197 198